Osceola, IA

6:37 AM CST on December 03, 2016 (GMT -0600)
Osceola Municipal

Weather History for KI75 - November, 2013

Change the Weather History Date:

Saturday, November 2, 2013

  Actual Average (KLWD) Record (KLWD)
Temperature  
Mean Temperature 44 °F 46 °F  
Max Temperature 52 °F 56 °F 78 °F (1964)
Min Temperature 35 °F 37 °F 9 °F (1991)
Degree Days  
Heating Degree Days 22 19  
Month to date heating degree days 37  
Since 1 July heating degree days 521  
Cooling Degree Days 0 0  
Month to date cooling degree days 0  
Year to date cooling degree days 946  
Moisture  
Dew Point 34 °F    
Average Humidity 70    
Maximum Humidity 86    
Minimum Humidity 42    
Precipitation  
Precipitation 0.00 in 0.12 in 2.62 in (2003)
Month to date precipitation 0.24  
Sea Level Pressure  
Sea Level Pressure 30.07 in    
Wind  
Wind Speed 9 mph (WNW)    
Max Wind Speed 15 mph    
Max Gust Speed 21 mph    
Visibility 10 miles    
Events      
T = Trace of Precipitation, MM = Missing Value Source: NWS Daily Summary

Daily Weather History Graph

Daily Weather History Graph

Search for Another Location

Airport or City:

Trip Planner

Search our weather history database for the weather conditions in past years. The results will help you decide how hot, cold, wet, or windy it might be!

Date:

Astronomy

Nov. 02, 2013 Rise Set
Actual Time 7:47 AM CDT 6:08 PM CDT
Civil Twilight 7:18 AM CDT 6:37 PM CDT
Nautical Twilight 6:45 AM CDT 7:10 PM CDT
Astronomical Twilight 6:13 AM CDT 7:42 PM CDT
Moon 6:44 AM CDT (11/2) 5:40 PM CDT (11/2)
Length of Visible Light 11h 19m
Length of Day
10h 21m
Waning Crescent, 1% of the Moon is Illuminated
Nov 2
Waning Crescent
Nov 3
New
Nov 9
First Quarter
Nov 17
Full
Nov 25
Last Quarter

Hourly Weather History & Observations

Time (CDT) Temp. Windchill Dew Point Humidity Pressure Visibility Wind Dir Wind Speed Gust Speed Precip Events Conditions
12:15 AM 41.4 °F 35.7 °F 37.4 °F 86% 29.89 in 10.0 mi West 9.2 mph - N/A   Mostly Cloudy
12:35 AM 41.9 °F 36.9 °F 37.6 °F 85% 29.89 in 10.0 mi WNW 8.1 mph - N/A   Overcast
12:55 AM 42.3 °F 35.9 °F 38.1 °F 85% 29.90 in 10.0 mi WNW 11.5 mph - N/A   Overcast
1:15 AM 43.0 °F 36.8 °F 38.5 °F 84% 29.90 in 10.0 mi WNW 11.5 mph 16.1 mph N/A   Overcast
1:35 AM 43.3 °F 37.2 °F 38.5 °F 83% 29.91 in 10.0 mi WNW 11.5 mph 18.4 mph N/A   Overcast
1:55 AM 43.3 °F 38.1 °F 38.5 °F 83% 29.91 in 10.0 mi WNW 9.2 mph - N/A   Overcast
2:15 AM 43.0 °F 37.7 °F 38.3 °F 84% 29.92 in 10.0 mi WNW 9.2 mph - N/A   Overcast
2:35 AM 42.8 °F 38.0 °F 38.3 °F 84% 29.93 in 10.0 mi WNW 8.1 mph - N/A   Overcast
2:55 AM 42.8 °F 37.5 °F 38.3 °F 84% 29.94 in 10.0 mi WNW 9.2 mph - N/A   Overcast
3:15 AM 43.2 °F 37.9 °F 38.3 °F 83% 29.94 in 10.0 mi NW 9.2 mph - N/A   Overcast
3:35 AM 43.3 °F 38.1 °F 38.1 °F 82% 29.94 in 10.0 mi NW 9.2 mph - N/A   Overcast
3:55 AM 43.3 °F 37.2 °F 37.6 °F 80% 29.94 in 10.0 mi NW 11.5 mph 16.1 mph N/A   Overcast
4:15 AM 43.0 °F 36.4 °F 37.2 °F 80% 29.95 in 10.0 mi NW 12.7 mph 17.3 mph N/A   Overcast
4:35 AM 42.6 °F 36.8 °F 37.0 °F 81% 29.96 in 10.0 mi NW 10.4 mph - N/A   Overcast
4:55 AM 43.0 °F 35.7 °F 36.9 °F 79% 29.97 in 10.0 mi NW 15.0 mph - N/A   Overcast
5:15 AM 42.8 °F 36.6 °F 37.0 °F 80% 29.98 in 10.0 mi NW 11.5 mph 20.7 mph N/A   Overcast
5:35 AM 42.8 °F 37.0 °F 37.4 °F 81% 30.00 in 10.0 mi NW 10.4 mph 17.3 mph N/A   Overcast
5:55 AM 42.8 °F 37.5 °F 37.4 °F 81% 30.01 in 10.0 mi NW 9.2 mph - N/A   Overcast
6:15 AM 42.4 °F 37.0 °F 37.4 °F 82% 30.02 in 10.0 mi NW 9.2 mph - N/A   Overcast
6:35 AM 41.9 °F 36.9 °F 37.0 °F 83% 30.02 in 10.0 mi NW 8.1 mph - N/A   Mostly Cloudy
6:55 AM 41.9 °F 38.2 °F 37.4 °F 84% 30.03 in 10.0 mi WNW 5.8 mph - N/A   Mostly Cloudy
7:15 AM 42.3 °F 36.3 °F 37.4 °F 83% 30.04 in 10.0 mi WNW 10.4 mph - N/A   Overcast
7:35 AM 42.8 °F 38.0 °F 37.4 °F 81% 30.04 in 10.0 mi NW 8.1 mph - N/A   Overcast
7:55 AM 42.8 °F 38.0 °F 37.6 °F 82% 30.05 in 10.0 mi WNW 8.1 mph - N/A   Overcast
8:15 AM 42.6 °F 38.4 °F 37.8 °F 83% 30.06 in 10.0 mi WNW 6.9 mph - N/A   Overcast
8:35 AM 42.8 °F 37.5 °F 37.9 °F 83% 30.06 in 10.0 mi WNW 9.2 mph - N/A   Overcast
8:55 AM 43.2 °F 37.9 °F 37.8 °F 81% 30.08 in 10.0 mi NW 9.2 mph - N/A   Overcast
9:15 AM 43.2 °F 37.0 °F 37.9 °F 82% 30.09 in 10.0 mi WNW 11.5 mph - N/A   Overcast
9:35 AM 43.7 °F 37.3 °F 37.9 °F 80% 30.09 in 10.0 mi NW 12.7 mph - N/A   Overcast
9:55 AM 44.2 °F 39.2 °F 37.8 °F 78% 30.10 in 10.0 mi NW 9.2 mph 12.7 mph N/A   Mostly Cloudy
10:15 AM 45.5 °F 39.2 °F 37.6 °F 74% 30.10 in 10.0 mi NW 13.8 mph - N/A   Mostly Cloudy
10:35 AM 45.0 °F 38.2 °F 37.0 °F 74% 30.10 in 10.0 mi NW 15.0 mph - N/A   Mostly Cloudy
10:55 AM 45.1 °F 38.8 °F 36.1 °F 71% 30.11 in 10.0 mi NW 13.8 mph 18.4 mph N/A   Overcast
12:15 PM 46.9 °F - 33.8 °F 60% 30.13 in 10.0 mi NNW 11.5 mph 17.3 mph N/A   Mostly Cloudy
12:35 PM 48.2 °F - 33.6 °F 57% 30.13 in 10.0 mi WNW 11.5 mph 16.1 mph N/A   Mostly Cloudy
12:55 PM 48.9 °F - 34.5 °F 58% 30.13 in 10.0 mi NW 8.1 mph 18.4 mph N/A   Scattered Clouds
1:15 PM 49.3 °F - 32.5 °F 53% 30.13 in 10.0 mi WNW 11.5 mph 18.4 mph N/A   Scattered Clouds
1:35 PM 50.7 °F - 33.1 °F 51% 30.13 in 10.0 mi WNW 11.5 mph - N/A   Scattered Clouds
1:55 PM 50.5 °F - 31.1 °F 47% 30.12 in 10.0 mi NW 9.2 mph 18.4 mph N/A   Scattered Clouds
2:15 PM 50.7 °F - 30.6 °F 46% 30.12 in 10.0 mi WNW 11.5 mph 16.1 mph N/A   Clear
2:35 PM 51.8 °F - 30.6 °F 44% 30.12 in 10.0 mi NW 9.2 mph - N/A   Clear
2:55 PM 51.8 °F - 30.7 °F 45% 30.12 in 10.0 mi WNW 8.1 mph - N/A   Scattered Clouds
3:15 PM 51.8 °F - 30.6 °F 44% 30.12 in 10.0 mi NW 10.4 mph 16.1 mph N/A   Clear
3:35 PM 52.2 °F - 30.4 °F 43% 30.12 in 10.0 mi WNW 11.5 mph - N/A   Clear
3:55 PM 52.0 °F - 29.5 °F 42% 30.12 in 10.0 mi NW 9.2 mph - N/A   Clear
4:15 PM 52.2 °F - 29.8 °F 42% 30.12 in 10.0 mi West 10.4 mph - N/A   Clear
4:35 PM 51.4 °F - 29.5 °F 43% 30.12 in 10.0 mi WNW 9.2 mph - N/A   Clear
4:55 PM 51.6 °F - 29.5 °F 43% 30.13 in 10.0 mi West 8.1 mph - N/A   Clear
5:15 PM 50.9 °F - 30.2 °F 45% 30.13 in 10.0 mi WNW 8.1 mph - N/A   Clear
5:35 PM 49.6 °F - 31.3 °F 49% 30.12 in 10.0 mi NW 8.1 mph - N/A   Clear
5:55 PM 46.9 °F - 32.0 °F 56% 30.12 in 10.0 mi WNW 4.6 mph - N/A   Clear
6:15 PM 45.3 °F 43.0 °F 31.5 °F 58% 30.13 in 10.0 mi WNW 4.6 mph - N/A   Clear
6:35 PM 43.9 °F 42.3 °F 31.1 °F 61% 30.13 in 10.0 mi West 3.5 mph - N/A   Clear
6:55 PM 45.1 °F 43.7 °F 31.5 °F 59% 30.13 in 10.0 mi WSW 3.5 mph - N/A   Clear
7:15 PM 44.8 °F - 31.3 °F 59% 30.14 in 10.0 mi Calm Calm - N/A   Clear
7:35 PM 44.8 °F 43.3 °F 31.1 °F 59% 30.14 in 10.0 mi SW 3.5 mph - N/A   Clear
7:55 PM 42.1 °F 39.2 °F 31.1 °F 65% 30.14 in 10.0 mi SSW 4.6 mph - N/A   Clear
8:15 PM 39.9 °F 36.7 °F 31.1 °F 71% 30.14 in 10.0 mi SSW 4.6 mph - N/A   Clear
8:35 PM 39.9 °F 36.7 °F 31.5 °F 72% 30.14 in 10.0 mi SSW 4.6 mph - N/A   Clear
8:55 PM 37.9 °F 34.4 °F 31.1 °F 76% 30.13 in 10.0 mi SSW 4.6 mph - N/A   Clear
9:15 PM 35.6 °F 32.8 °F 29.8 °F 80% 30.13 in 10.0 mi SSW 3.5 mph - N/A   Clear
9:35 PM 38.5 °F 34.1 °F 31.5 °F 76% 30.13 in 10.0 mi SSW 5.8 mph - N/A   Clear
9:55 PM 36.3 °F 32.5 °F 30.9 °F 81% 30.13 in 10.0 mi SSW 4.6 mph - N/A   Clear
10:15 PM 37.6 °F 33.1 °F 31.5 °F 79% 30.14 in 10.0 mi South 5.8 mph - N/A   Clear
10:35 PM 36.9 °F 33.1 °F 31.1 °F 80% 30.14 in 10.0 mi South 4.6 mph - N/A   Clear
10:55 PM 36.9 °F 33.1 °F 31.5 °F 81% 30.14 in 10.0 mi South 4.6 mph - N/A   Clear
11:15 PM 35.6 °F 30.7 °F 31.1 °F 84% 30.14 in 10.0 mi South 5.8 mph - N/A   Clear
11:35 PM 35.8 °F 30.9 °F 31.1 °F 83% 30.14 in 10.0 mi South 5.8 mph - N/A   Clear
11:55 PM 36.1 °F 31.4 °F 31.5 °F 83% 30.13 in 10.0 mi SSE 5.8 mph - N/A   Clear